| time (UTC) | temp F | wind direction | speed MPH | gust MPH | rain 1hr in | rain 24hr in | rain mn in | humidity % | barometer mb |
| 20260506073503 | 57 | 331 | 1.0 | 2.0 | 0.00 | 0.00 | 0.00 | 74 | 1007.3 |
| 20260506073217 | 57 | 336 | 1.0 | 3.0 | 0.00 | 0.00 | 0.00 | 75 | 1007.4 |
| 20260506072503 | 57 | 328 | 1.0 | 3.0 | 0.00 | 0.00 | 0.00 | 76 | 1007.3 |
| 20260506072003 | 57 | 312 | 1.0 | 3.0 | 0.00 | 0.00 | 0.00 | 75 | 1007.3 |
| 20260506071503 | 58 | 316 | 1.0 | 3.0 | 0.00 | 0.00 | 0.00 | 73 | 1007.3 |
| 20260506071217 | 58 | 325 | 1.0 | 3.0 | 0.00 | 0.00 | 0.00 | 73 | 1006.8 |
| 20260506070503 | 57 | 313 | 1.0 | 4.0 | 0.00 | 0.00 | 0.00 | 74 | 1007.3 |
| 20260506062503 | 59 | 343 | 1.0 | 2.0 | 0.00 | 0.00 | 0.00 | 70 | 1007.4 |
| 20260506062217 | 58 | 344 | 1.0 | 2.0 | 0.00 | 0.00 | 0.00 | 72 | 1007.2 |
| 20260506061503 | 59 | 336 | 1.0 | 3.0 | 0.00 | 0.00 | 0.00 | 71 | 1007.0 |
| 20260506061003 | 58 | 335 | 1.0 | 2.0 | 0.00 | 0.00 | 0.00 | 72 | 1007.2 |
| 20260506060503 | 57 | 10 | 1.0 | 2.0 | 0.00 | 0.00 | 0.00 | 73 | 1007.3 |
| 20260506051003 | 51 | 263 | 1.0 | 3.0 | 0.00 | 0.00 | 0.00 | 88 | 1007.4 |
| 20260506050503 | 51 | 224 | 0.0 | 2.0 | 0.00 | 0.00 | 0.00 | 88 | 1007.4 |
| 20260506045003 | 51 | 307 | 1.0 | 2.0 | 0.00 | 0.00 | 0.00 | 90 | 1007.6 |
| 20260506044503 | 50 | 326 | 0.0 | 2.0 | 0.00 | 0.00 | 0.00 | 90 | 1007.5 |
| 20260506044003 | 50 | 342 | 0.0 | 2.0 | 0.00 | 0.00 | 0.00 | 91 | 1007.6 |
| 20260506043503 | 50 | 354 | 0.0 | 2.0 | 0.00 | 0.00 | 0.00 | 91 | 1007.8 |
| 20260506043003 | 50 | 3 | 1.0 | 2.0 | 0.00 | 0.00 | 0.00 | 91 | 1007.9 |
| 20260506042503 | 50 | 8 | 1.0 | 2.0 | 0.00 | 0.00 | 0.00 | 91 | 1007.8 |
| 20260506042003 | 49 | 347 | 0.0 | 2.0 | 0.00 | 0.00 | 0.00 | 91 | 1007.7 |
| 20260506041503 | 50 | 315 | 1.0 | 2.0 | 0.00 | 0.00 | 0.00 | 91 | 1007.8 |
| 20260506041003 | 50 | 283 | 1.0 | 2.0 | 0.00 | 0.00 | 0.00 | 91 | 1007.8 |
| 20260506040503 | 50 | 209 | 0.0 | 2.0 | 0.00 | 0.00 | 0.00 | 91 | 1007.8 |
| 20260506040003 | 50 | 307 | 0.0 | 1.0 | 0.00 | 0.00 | 0.00 | 91 | 1007.9 |
| 20260506035503 | 50 | 316 | 1.0 | 2.0 | 0.00 | 0.00 | 0.00 | 90 | 1008.0 |
| 20260506035003 | 50 | 300 | 0.0 | 2.0 | 0.00 | 0.00 | 0.00 | 90 | 1007.9 |
| 20260506034503 | 50 | 342 | 1.0 | 2.0 | 0.00 | 0.00 | 0.00 | 90 | 1007.9 |
| 20260506034003 | 50 | 349 | 1.0 | 3.0 | 0.00 | 0.00 | 0.00 | 91 | 1008.1 |
| 20260506033503 | 50 | 335 | 0.0 | 2.0 | 0.00 | 0.00 | 0.00 | 91 | 1008.0 |
| 20260506033003 | 50 | 338 | 0.0 | 2.0 | 0.00 | 0.00 | 0.00 | 90 | 1008.0 |
| 20260506032717 | 50 | 328 | 0.0 | 2.0 | 0.00 | 0.00 | 0.00 | 90 | 1007.9 |
| 20260506032003 | 51 | 307 | 1.0 | 2.0 | 0.00 | 0.00 | 0.00 | 89 | 1008.0 |
| 20260506031503 | 51 | 356 | 0.0 | 2.0 | 0.00 | 0.00 | 0.00 | 89 | 1007.9 |
| 20260506031003 | 51 | 327 | 0.0 | 2.0 | 0.00 | 0.00 | 0.00 | 89 | 1008.2 |
| 20260506030503 | 51 | 330 | 0.0 | 2.0 | 0.00 | 0.00 | 0.00 | 89 | 1008.0 |
| 20260506030003 | 51 | 326 | 0.0 | 2.0 | 0.00 | 0.00 | 0.00 | 88 | 1008.2 |
| 20260506025503 | 51 | 322 | 0.0 | 2.0 | 0.00 | 0.00 | 0.00 | 88 | 1008.1 |
| 20260506025003 | 51 | 338 | 0.0 | 2.0 | 0.00 | 0.00 | 0.00 | 87 | 1008.4 |
| 20260506024503 | 52 | 348 | 0.0 | 2.0 | 0.00 | 0.00 | 0.00 | 87 | 1008.3 |
| 20260506024003 | 52 | 3 | 0.0 | 1.0 | 0.00 | 0.00 | 0.00 | 87 | 1008.2 |
| 20260506023503 | 52 | 336 | 0.0 | 2.0 | 0.00 | 0.00 | 0.00 | 86 | 1007.9 |
| 20260506023003 | 52 | 279 | 0.0 | 2.0 | 0.00 | 0.00 | 0.00 | 86 | 1008.1 |
| 20260506022503 | 52 | 268 | 0.0 | 2.0 | 0.00 | 0.00 | 0.00 | 85 | 1008.2 |
| 20260506022003 | 53 | 264 | 1.0 | 2.0 | 0.00 | 0.00 | 0.00 | 85 | 1008.2 |
| 20260506021503 | 53 | 270 | 1.0 | 2.0 | 0.00 | 0.00 | 0.00 | 85 | 1008.0 |
| 20260506021003 | 52 | 281 | 1.0 | 3.0 | 0.00 | 0.00 | 0.00 | 86 | 1008.2 |
| 20260506020503 | 52 | 273 | 0.0 | 2.0 | 0.00 | 0.00 | 0.00 | 86 | 1008.1 |
| 20260506020003 | 52 | 245 | 0.0 | 1.0 | 0.00 | 0.00 | 0.00 | 86 | 1008.1 |
| 20260506015503 | 52 | 302 | 0.0 | 2.0 | 0.00 | 0.00 | 0.00 | 86 | 1008.0 |
| 20260506015003 | 52 | 331 | 1.0 | 2.0 | 0.00 | 0.00 | 0.00 | 86 | 1008.3 |
| 20260506014503 | 52 | 349 | 1.0 | 3.0 | 0.00 | 0.00 | 0.00 | 86 | 1008.6 |
| 20260506014003 | 52 | 353 | 1.0 | 2.0 | 0.00 | 0.00 | 0.00 | 86 | 1008.3 |
| 20260506013718 | 52 | 340 | 1.0 | 3.0 | 0.00 | 0.00 | 0.00 | 86 | 1008.4 |
| 20260506013217 | 53 | 336 | 1.0 | 4.0 | 0.00 | 0.00 | 0.00 | 85 | 1008.5 |
| 20260506012718 | 53 | 331 | 1.0 | 4.0 | 0.00 | 0.00 | 0.00 | 85 | 1008.6 |
| 20260506012003 | 53 | 327 | 1.0 | 3.0 | 0.00 | 0.00 | 0.00 | 84 | 1008.5 |
| 20260506011718 | 53 | 327 | 1.0 | 3.0 | 0.00 | 0.00 | 0.00 | 84 | 1008.3 |
| 20260506011003 | 53 | 315 | 1.0 | 5.0 | 0.00 | 0.00 | 0.00 | 84 | 1008.3 |
| 20260506010718 | 53 | 304 | 1.0 | 5.0 | 0.00 | 0.00 | 0.00 | 84 | 1008.2 |
| 20260506010003 | 53 | 320 | 1.0 | 3.0 | 0.00 | 0.00 | 0.00 | 85 | 1008.3 |
| 20260506005503 | 53 | 335 | 1.0 | 3.0 | 0.00 | 0.00 | 0.00 | 85 | 1008.3 |
| 20260506005217 | 53 | 310 | 0.0 | 2.0 | 0.00 | 0.00 | 0.00 | 84 | 1008.1 |
| 20260506004718 | 53 | 327 | 0.0 | 1.0 | 0.00 | 0.00 | 0.00 | 84 | 1008.3 |
| 20260506004003 | 54 | 342 | 0.0 | 2.0 | 0.00 | 0.00 | 0.00 | 83 | 1008.4 |
| 20260506003718 | 54 | 291 | 0.0 | 1.0 | 0.00 | 0.00 | 0.00 | 83 | 1008.2 |
| 20260506003003 | 54 | 248 | 0.0 | 2.0 | 0.00 | 0.00 | 0.00 | 82 | 1008.2 |
| 20260506002717 | 54 | 256 | 0.0 | 2.0 | 0.00 | 0.00 | 0.00 | 82 | 1008.3 |
| 20260506002003 | 54 | 257 | 0.0 | 4.0 | 0.00 | 0.00 | 0.00 | 82 | 1008.3 |
| 20260506001503 | 54 | 231 | 1.0 | 2.0 | 0.00 | 0.00 | 0.00 | 82 | 1008.5 |
| 20260506001003 | 54 | 227 | 1.0 | 3.0 | 0.00 | 0.00 | 0.00 | 81 | 1008.3 |
| 20260506000503 | 55 | 223 | 1.0 | 2.0 | 0.00 | 0.00 | 0.00 | 81 | 1008.5 |
| 20260506000003 | 55 | 235 | 0.0 | 3.0 | 0.00 | 0.00 | 0.00 | 80 | 1008.3 |
| 20260505235717 | 55 | 234 | 0.0 | 3.0 | 0.00 | 0.00 | 0.00 | 80 | 1008.5 |
| 20260505235003 | 55 | 279 | 0.0 | 2.0 | 0.00 | 0.00 | 0.00 | 80 | 1008.8 |
| 20260505234503 | 56 | 212 | 0.0 | 2.0 | 0.00 | 0.00 | 0.00 | 79 | 1008.6 |
| 20260505234003 | 56 | 230 | 0.0 | 2.0 | 0.00 | 0.00 | 0.00 | 79 | 1008.8 |
| 20260505233503 | 56 | 248 | 0.0 | 2.0 | 0.00 | 0.00 | 0.00 | 78 | 1008.7 |
| 20260505233003 | 56 | 266 | 0.0 | 1.0 | 0.00 | 0.00 | 0.00 | 78 | 1008.9 |
| 20260505232503 | 56 | 291 | 1.0 | 2.0 | 0.00 | 0.00 | 0.00 | 78 | 1008.8 |
| 20260505232003 | 56 | 303 | 1.0 | 3.0 | 0.00 | 0.00 | 0.00 | 78 | 1008.7 |
| 20260505231503 | 56 | 300 | 1.0 | 4.0 | 0.00 | 0.00 | 0.00 | 78 | 1008.7 |
| 20260505231003 | 56 | 293 | 1.0 | 2.0 | 0.00 | 0.00 | 0.00 | 79 | 1008.6 |
| 20260505230503 | 56 | 285 | 1.0 | 4.0 | 0.00 | 0.00 | 0.00 | 80 | 1008.7 |
| 20260505230003 | 55 | 294 | 0.0 | 5.0 | 0.00 | 0.00 | 0.00 | 83 | 1008.9 |
| 20260505225503 | 54 | 343 | 0.0 | 1.0 | 0.00 | 0.00 | 0.00 | 86 | 1009.1 |
| 20260505225003 | 54 | 304 | 0.0 | 2.0 | 0.00 | 0.00 | 0.00 | 86 | 1009.0 |
| 20260505224503 | 55 | 245 | 0.0 | 2.0 | 0.00 | 0.00 | 0.00 | 85 | 1008.9 |
| 20260505224003 | 55 | 242 | 0.0 | 2.0 | 0.00 | 0.00 | 0.00 | 85 | 1009.1 |
| 20260505223503 | 55 | 254 | 0.0 | 2.0 | 0.00 | 0.00 | 0.00 | 85 | 1009.1 |
| 20260505223218 | 55 | 291 | 0.0 | 2.0 | 0.00 | 0.00 | 0.00 | 84 | 1009.1 |
| 20260505222717 | 55 | 0 | 0.0 | 0.0 | 0.00 | 0.00 | 0.00 | 84 | 1008.8 |
| 20260505222003 | 55 | 229 | 0.0 | 0.0 | 0.00 | 0.00 | 0.00 | 84 | 1008.9 |
| 20260505221503 | 56 | 237 | 0.0 | 2.0 | 0.00 | 0.00 | 0.00 | 83 | 1008.7 |
| 20260505221218 | 56 | 33 | 0.0 | 1.0 | 0.00 | 0.00 | 0.00 | 84 | 1008.5 |
| 20260505220503 | 55 | 0 | 0.0 | 0.0 | 0.00 | 0.00 | 0.00 | 84 | 1008.7 |
| 20260505220003 | 55 | 343 | 0.0 | 0.0 | 0.00 | 0.00 | 0.00 | 84 | 1008.7 |
| 20260505215503 | 56 | 3 | 0.0 | 1.0 | 0.00 | 0.00 | 0.00 | 83 | 1008.6 |
| 20260505215003 | 56 | 8 | 0.0 | 1.0 | 0.00 | 0.00 | 0.00 | 83 | 1008.4 |
| 20260505214503 | 56 | 339 | 0.0 | 2.0 | 0.00 | 0.00 | 0.00 | 83 | 1008.4 |
| 20260505214004 | 56 | 336 | 0.0 | 2.0 | 0.00 | 0.00 | 0.00 | 83 | 1008.4 |
| 20260505213503 | 56 | 350 | 0.0 | 2.0 | 0.00 | 0.00 | 0.00 | 83 | 1008.3 |
| 20260505213003 | 56 | 13 | 0.0 | 2.0 | 0.00 | 0.00 | 0.00 | 82 | 1008.4 |
| 20260505212503 | 56 | 194 | 0.0 | 2.0 | 0.00 | 0.00 | 0.00 | 81 | 1008.3 |
| 20260505212003 | 56 | 208 | 0.0 | 2.0 | 0.00 | 0.00 | 0.00 | 81 | 1008.4 |
| 20260505211503 | 56 | 30 | 0.0 | 1.0 | 0.00 | 0.00 | 0.00 | 82 | 1008.5 |
| 20260505211004 | 56 | 27 | 1.0 | 2.0 | 0.00 | 0.00 | 0.00 | 82 | 1008.5 |
| 20260505210503 | 56 | 9 | 1.0 | 2.0 | 0.00 | 0.00 | 0.00 | 82 | 1008.6 |
| 20260505210003 | 56 | 354 | 1.0 | 3.0 | 0.00 | 0.00 | 0.00 | 82 | 1008.7 |
| 20260505205503 | 56 | 353 | 1.0 | 3.0 | 0.00 | 0.00 | 0.00 | 83 | 1008.7 |
| 20260505205003 | 56 | 352 | 0.0 | 1.0 | 0.00 | 0.00 | 0.00 | 82 | 1008.6 |
| 20260505204503 | 56 | 347 | 1.0 | 2.0 | 0.00 | 0.00 | 0.00 | 82 | 1008.7 |
| 20260505204003 | 56 | 346 | 1.0 | 2.0 | 0.00 | 0.00 | 0.00 | 81 | 1008.5 |
| 20260505203503 | 57 | 347 | 1.0 | 2.0 | 0.00 | 0.00 | 0.00 | 81 | 1008.4 |
| 20260505203003 | 57 | 357 | 1.0 | 2.0 | 0.00 | 0.00 | 0.00 | 81 | 1008.4 |
| 20260505202718 | 57 | 5 | 0.0 | 2.0 | 0.00 | 0.00 | 0.00 | 80 | 1008.4 |
| 20260505202217 | 57 | 348 | 0.0 | 2.0 | 0.00 | 0.00 | 0.00 | 79 | 1008.5 |
| 20260505201503 | 57 | 248 | 0.0 | 1.0 | 0.00 | 0.00 | 0.00 | 79 | 1008.2 |
| 20260505201003 | 57 | 246 | 0.0 | 1.0 | 0.00 | 0.00 | 0.00 | 79 | 1008.1 |
| 20260505200503 | 57 | 245 | 0.0 | 1.0 | 0.00 | 0.00 | 0.00 | 79 | 1008.2 |
| 20260505200003 | 57 | 245 | 0.0 | 1.0 | 0.00 | 0.00 | 0.00 | 79 | 1008.2 |
| 20260505195503 | 57 | 253 | 0.0 | 1.0 | 0.00 | 0.00 | 0.00 | 79 | 1008.0 |
| 20260505195003 | 57 | 260 | 0.0 | 1.0 | 0.00 | 0.00 | 0.00 | 79 | 1007.9 |
| 20260505194503 | 57 | 251 | 0.0 | 1.0 | 0.00 | 0.00 | 0.00 | 79 | 1008.0 |
| 20260505194003 | 57 | 263 | 0.0 | 1.0 | 0.00 | 0.00 | 0.00 | 78 | 1008.0 |
| 20260505193503 | 57 | 278 | 0.0 | 1.0 | 0.00 | 0.00 | 0.00 | 79 | 1007.9 |
| 20260505193217 | 57 | 276 | 0.0 | 2.0 | 0.00 | 0.00 | 0.00 | 79 | 1008.0 |
| 20260505192503 | 57 | 247 | 0.0 | 1.0 | 0.00 | 0.00 | 0.00 | 79 | 1007.8 |
| 20260505192003 | 57 | 248 | 0.0 | 2.0 | 0.00 | 0.00 | 0.00 | 79 | 1007.9 |
| 20260505191718 | 57 | 245 | 0.0 | 2.0 | 0.00 | 0.00 | 0.00 | 79 | 1007.7 |
| 20260505191003 | 57 | 253 | 0.0 | 2.0 | 0.00 | 0.00 | 0.00 | 79 | 1007.6 |
| 20260505190717 | 57 | 261 | 1.0 | 2.0 | 0.00 | 0.00 | 0.00 | 79 | 1007.8 |
| 20260505190003 | 58 | 260 | 1.0 | 2.0 | 0.00 | 0.00 | 0.00 | 78 | 1007.7 |
| 20260505185503 | 58 | 254 | 1.0 | 2.0 | 0.00 | 0.00 | 0.00 | 77 | 1007.5 |
| 20260505185003 | 58 | 242 | 1.0 | 2.0 | 0.00 | 0.00 | 0.00 | 77 | 1007.4 |
| 20260505184503 | 58 | 250 | 1.0 | 2.0 | 0.00 | 0.00 | 0.00 | 76 | 1007.6 |
| 20260505184003 | 58 | 254 | 0.0 | 2.0 | 0.00 | 0.00 | 0.00 | 76 | 1007.7 |
| 20260505183503 | 58 | 254 | 0.0 | 2.0 | 0.00 | 0.00 | 0.00 | 75 | 1007.4 |
| 20260505183003 | 59 | 263 | 1.0 | 2.0 | 0.00 | 0.00 | 0.00 | 75 | 1007.3 |
| 20260505182717 | 59 | 237 | 1.0 | 2.0 | 0.00 | 0.00 | 0.00 | 74 | 1007.2 |
| 20260505182003 | 59 | 208 | 1.0 | 5.0 | 0.00 | 0.00 | 0.00 | 73 | 1007.4 |
| 20260505181503 | 59 | 211 | 1.0 | 5.0 | 0.00 | 0.00 | 0.00 | 73 | 1007.0 |
| 20260505181003 | 59 | 213 | 1.0 | 3.0 | 0.00 | 0.00 | 0.00 | 73 | 1007.2 |
| 20260505180503 | 59 | 210 | 1.0 | 4.0 | 0.00 | 0.00 | 0.00 | 73 | 1007.3 |
| 20260505180003 | 59 | 214 | 2.0 | 5.0 | 0.00 | 0.00 | 0.00 | 73 | 1006.9 |
| 20260505175503 | 59 | 226 | 2.0 | 6.0 | 0.00 | 0.00 | 0.00 | 73 | 1007.2 |
| 20260505175003 | 60 | 235 | 2.0 | 4.0 | 0.00 | 0.00 | 0.00 | 73 | 1007.2 |
| 20260505174503 | 60 | 226 | 2.0 | 5.0 | 0.00 | 0.00 | 0.00 | 72 | 1007.0 |
| 20260505174003 | 60 | 229 | 2.0 | 6.0 | 0.00 | 0.00 | 0.00 | 72 | 1006.9 |
| 20260505173503 | 60 | 250 | 1.0 | 4.0 | 0.00 | 0.00 | 0.00 | 72 | 1006.8 |
| 20260505173003 | 60 | 237 | 1.0 | 3.0 | 0.00 | 0.00 | 0.00 | 72 | 1006.8 |
| 20260505172503 | 61 | 225 | 2.0 | 5.0 | 0.00 | 0.00 | 0.00 | 71 | 1006.9 |
| 20260505172003 | 61 | 228 | 2.0 | 6.0 | 0.00 | 0.00 | 0.00 | 71 | 1006.8 |
| 20260505171503 | 61 | 225 | 2.0 | 4.0 | 0.00 | 0.00 | 0.00 | 70 | 1006.7 |
| 20260505171003 | 61 | 222 | 2.0 | 8.0 | 0.00 | 0.00 | 0.00 | 70 | 1006.5 |
| 20260505170503 | 61 | 223 | 2.0 | 6.0 | 0.00 | 0.00 | 0.00 | 70 | 1006.7 |
| 20260505170003 | 61 | 227 | 2.0 | 9.0 | 0.00 | 0.00 | 0.00 | 71 | 1006.7 |
| 20260505165717 | 61 | 226 | 3.0 | 9.0 | 0.00 | 0.00 | 0.00 | 71 | 1006.7 |
| 20260505165003 | 61 | 240 | 3.0 | 9.0 | 0.00 | 0.00 | 0.00 | 71 | 1006.7 |
| 20260505164503 | 60 | 245 | 2.0 | 7.0 | 0.00 | 0.00 | 0.00 | 71 | 1007.0 |
| 20260505164003 | 61 | 221 | 3.0 | 7.0 | 0.00 | 0.00 | 0.00 | 70 | 1006.9 |
| 20260505163503 | 61 | 218 | 2.0 | 9.0 | 0.00 | 0.00 | 0.00 | 70 | 1006.7 |
| 20260505163003 | 61 | 270 | 2.0 | 5.0 | 0.00 | 0.00 | 0.00 | 71 | 1006.9 |
| 20260505162716 | 60 | 324 | 2.0 | 6.0 | 0.00 | 0.00 | 0.00 | 71 | 1006.9 |
| 20260505162003 | 61 | 277 | 2.0 | 8.0 | 0.00 | 0.00 | 0.00 | 72 | 1007.0 |
| 20260505161503 | 61 | 251 | 2.0 | 7.0 | 0.00 | 0.00 | 0.00 | 72 | 1007.2 |
| 20260505161003 | 61 | 243 | 3.0 | 9.0 | 0.00 | 0.00 | 0.00 | 71 | 1007.3 |
| 20260505160503 | 61 | 203 | 3.0 | 9.0 | 0.00 | 0.00 | 0.00 | 70 | 1007.2 |
| 20260505153003 | 63 | 16 | 2.0 | 5.0 | 0.00 | 0.00 | 0.00 | 68 | 1007.2 |
| 20260505152503 | 63 | 4 | 2.0 | 8.0 | 0.00 | 0.00 | 0.00 | 67 | 1007.2 |
| 20260505152003 | 63 | 2 | 2.0 | 6.0 | 0.00 | 0.00 | 0.00 | 67 | 1007.2 |
| 20260505151503 | 63 | 14 | 2.0 | 7.0 | 0.00 | 0.00 | 0.00 | 64 | 1007.0 |
| 20260505151003 | 64 | 22 | 2.0 | 4.0 | 0.00 | 0.00 | 0.00 | 61 | 1007.3 |
| 20260505150503 | 63 | 25 | 2.0 | 5.0 | 0.00 | 0.00 | 0.00 | 61 | 1006.9 |
| 20260505140503 | 65 | 83 | 2.0 | 3.0 | 0.00 | 0.00 | 0.00 | 64 | 1007.2 |
| 20260505130218 | 73 | 139 | 1.0 | 3.0 | 0.00 | 0.00 | 0.00 | 37 | 1006.7 |
| 20260505125003 | 73 | 157 | 2.0 | 4.0 | 0.00 | 0.00 | 0.00 | 35 | 1006.5 |
| 20260505124503 | 73 | 164 | 3.0 | 6.0 | 0.00 | 0.00 | 0.00 | 36 | 1006.5 |
| 20260505124003 | 74 | 159 | 2.0 | 5.0 | 0.00 | 0.00 | 0.00 | 35 | 1006.6 |
| 20260505123717 | 74 | 158 | 2.0 | 4.0 | 0.00 | 0.00 | 0.00 | 35 | 1006.6 |
| 20260505123003 | 73 | 154 | 2.0 | 4.0 | 0.00 | 0.00 | 0.00 | 36 | 1006.6 |
| 20260505122717 | 73 | 150 | 2.0 | 4.0 | 0.00 | 0.00 | 0.00 | 37 | 1006.8 |
| 20260505122218 | 72 | 151 | 3.0 | 5.0 | 0.00 | 0.00 | 0.00 | 37 | 1006.8 |
| 20260505121503 | 73 | 149 | 2.0 | 4.0 | 0.00 | 0.00 | 0.00 | 36 | 1006.6 |
| 20260505121003 | 74 | 153 | 2.0 | 3.0 | 0.00 | 0.00 | 0.00 | 34 | 1006.8 |
| 20260505120503 | 73 | 162 | 2.0 | 4.0 | 0.00 | 0.00 | 0.00 | 36 | 1006.8 |
| 20260505120003 | 74 | 162 | 1.0 | 3.0 | 0.00 | 0.00 | 0.00 | 36 | 1006.8 |
| 20260505115503 | 74 | 162 | 1.0 | 3.0 | 0.00 | 0.00 | 0.00 | 37 | 1006.8 |
| 20260505115218 | 74 | 209 | 1.0 | 2.0 | 0.00 | 0.00 | 0.00 | 36 | 1006.8 |
| 20260505114503 | 73 | 220 | 1.0 | 4.0 | 0.00 | 0.00 | 0.00 | 36 | 1006.7 |
| 20260505114003 | 74 | 187 | 1.0 | 4.0 | 0.00 | 0.00 | 0.00 | 37 | 1006.8 |
| 20260505113503 | 73 | 166 | 1.0 | 3.0 | 0.00 | 0.00 | 0.00 | 39 | 1006.7 |
| 20260505113003 | 72 | 156 | 2.0 | 4.0 | 0.00 | 0.00 | 0.00 | 38 | 1006.8 |
| 20260505112503 | 71 | 156 | 2.0 | 4.0 | 0.00 | 0.00 | 0.00 | 39 | 1007.0 |
| 20260505112218 | 72 | 163 | 2.0 | 3.0 | 0.00 | 0.00 | 0.00 | 41 | 1007.0 |
| 20260505111716 | 72 | 170 | 2.0 | 5.0 | 0.00 | 0.00 | 0.00 | 42 | 1007.2 |
| 20260505111003 | 72 | 173 | 1.0 | 4.0 | 0.00 | 0.00 | 0.00 | 40 | 1007.2 |
| 20260505110503 | 73 | 180 | 1.0 | 4.0 | 0.00 | 0.00 | 0.00 | 40 | 1007.2 |
| 20260505102003 | 73 | 159 | 2.0 | 5.0 | 0.00 | 0.00 | 0.00 | 41 | 1007.5 |
| 20260505101503 | 73 | 161 | 2.0 | 4.0 | 0.00 | 0.00 | 0.00 | 42 | 1007.8 |
| 20260505101003 | 73 | 169 | 2.0 | 3.0 | 0.00 | 0.00 | 0.00 | 41 | 1007.7 |
| 20260505100503 | 72 | 159 | 2.0 | 4.0 | 0.00 | 0.00 | 0.00 | 44 | 1007.7 |
| 20260505100003 | 71 | 168 | 2.0 | 4.0 | 0.00 | 0.00 | 0.00 | 45 | 1007.8 |
| 20260505095503 | 71 | 196 | 2.0 | 4.0 | 0.00 | 0.00 | 0.00 | 47 | 1007.8 |
| 20260505095003 | 70 | 183 | 2.0 | 4.0 | 0.00 | 0.00 | 0.00 | 47 | 1007.7 |
| 20260505094503 | 69 | 182 | 2.0 | 5.0 | 0.00 | 0.00 | 0.00 | 49 | 1007.8 |
| 20260505094003 | 71 | 199 | 2.0 | 4.0 | 0.00 | 0.00 | 0.00 | 47 | 1007.8 |
| 20260505093503 | 71 | 176 | 2.0 | 4.0 | 0.00 | 0.00 | 0.00 | 46 | 1008.0 |
| 20260505093003 | 71 | 172 | 2.0 | 4.0 | 0.00 | 0.00 | 0.00 | 47 | 1008.0 |
| 20260505092503 | 72 | 180 | 2.0 | 4.0 | 0.00 | 0.00 | 0.00 | 45 | 1008.1 |
| 20260505092003 | 71 | 179 | 2.0 | 6.0 | 0.00 | 0.00 | 0.00 | 47 | 1008.2 |
| 20260505091503 | 72 | 169 | 2.0 | 4.0 | 0.00 | 0.00 | 0.00 | 46 | 1008.2 |
| 20260505091217 | 72 | 169 | 2.0 | 3.0 | 0.00 | 0.00 | 0.00 | 46 | 1008.2 |
| 20260505090503 | 71 | 188 | 1.0 | 3.0 | 0.00 | 0.00 | 0.00 | 45 | 1008.2 |
| 20260505090003 | 69 | 192 | 1.0 | 4.0 | 0.00 | 0.00 | 0.00 | 48 | 1008.2 |
| 20260505085503 | 68 | 161 | 2.0 | 5.0 | 0.00 | 0.00 | 0.00 | 50 | 1008.5 |
| 20260505085003 | 68 | 153 | 2.0 | 5.0 | 0.00 | 0.00 | 0.00 | 54 | 1008.3 |
| 20260505084718 | 68 | 189 | 1.0 | 3.0 | 0.00 | 0.00 | 0.00 | 53 | 1008.3 |
| 20260505084003 | 70 | 203 | 2.0 | 4.0 | 0.00 | 0.00 | 0.00 | 51 | 1008.4 |
| 20260505083503 | 72 | 181 | 1.0 | 3.0 | 0.00 | 0.00 | 0.00 | 48 | 1008.4 |
| 20260505083003 | 71 | 180 | 1.0 | 3.0 | 0.00 | 0.00 | 0.00 | 48 | 1008.5 |
| 20260505082503 | 69 | 189 | 1.0 | 3.0 | 0.00 | 0.00 | 0.00 | 51 | 1008.5 |
| 20260505082216 | 69 | 197 | 1.0 | 3.0 | 0.00 | 0.00 | 0.00 | 51 | 1008.7 |
| 20260505081503 | 68 | 195 | 1.0 | 3.0 | 0.00 | 0.00 | 0.00 | 53 | 1008.8 |
| 20260505081003 | 68 | 178 | 1.0 | 2.0 | 0.00 | 0.00 | 0.00 | 54 | 1008.7 |
| 20260505080503 | 68 | 165 | 2.0 | 3.0 | 0.00 | 0.00 | 0.00 | 56 | 1008.6 |